www.pogodaiklimat.ru

Погода и климат >> Архив погоды >> Австралия >> Tibooburra Airport


ПОГОДА в Tibooburra Airport

  • Прогноз погоды в Tibooburra Airport
  • Монитор погоды в Tibooburra Airport
  • Климат города

АРХИВ ПОГОДЫ в Tibooburra Airport

Время (UTC), дата Ветер
(напр.,м/с)
 
Видим.   Явления Облачность Т
(С)
Тd
(С)
f
(%)
Тe
(С)
Тes
(С)
Комфортность P
(гПа)
Po
(гПа)
Тmin
(С)
Tmax
(С)
R
(мм)
R24
(мм)
S
(см)
17 19.06 Ю 3 н/о н/о +8.5 +0.7 58 +6 +6 1026.7 1005.3
16 19.06 ЮЗ 3 н/о н/о +9.7 +1.1 55 +8 +8 1027.1 1005.7
18 19.06 Ю 3 н/о н/о +9.1 +1.0 57 +7 +7 1026.3 1004.9
19 19.06 ЮВ 4 н/о н/о +9.5 +1.2 56 +7 +7 1025.2 1003.9
20 19.06 Ю 1 н/о н/о +8.9 +0.9 57 +9 +9 1026.0 1004.7
21 19.06 ЮВ 3 н/о н/о +9.0 +1.2 58 +7 +7 1026.7 1005.3
23 19.06 ЮВ 3 н/о н/о +11.4 +2.2 53 +10 +10 1027.6 1006.2
22 19.06 Ю 2 н/о н/о +8.4 +1.1 60 +7 +7 1027.2 1005.8
00 20.06 В 4 н/о н/о +14.4 +2.9 46 +13 +13 1028.0 1006.6
01 20.06 В 5 н/о н/о +16.8 +3.1 40 +16 +16 1027.7 1006.3
02 20.06 В 4 н/о н/о +17.9 +3.8 39 +18 +18 1027.0 1005.6 +8.1
03 20.06 В 3 н/о н/о +18.8 +4.2 38 +19 +19 1025.8 1004.5
05 20.06 ЮВ 4 н/о н/о +20.5 +3.7 33 +21 +21 комфорт 1024.4 1003.1
04 20.06 В 3 н/о н/о +19.7 +3.8 35 +20 +20 1024.8 1003.5
06 20.06 ЮВ 4 н/о н/о +20.1 +3.3 33 +21 +21 комфорт 1024.3 1003.0
07 20.06 Ю 4 н/о н/о +19.5 +3.6 35 +20 +20 1024.5 1003.2
08 20.06 Ю 4 н/о н/о +17.2 +3.1 39 +17 +17 1024.8 1003.5
09 20.06 Ю 4 н/о н/о +14.8 +3.0 45 +14 +14 1025.3 1004.0
11 20.06 Ю 3 н/о н/о +11.9 +2.4 52 +11 +11 1026.1 1004.8
10 20.06 Ю 3 н/о н/о +13.3 +2.5 48 +13 +13 1025.9 1004.6
12 20.06 Ю 3 н/о н/о +11.2 +2.0 53 +10 +10 1026.1 1004.8
13 20.06 Ю 2 н/о н/о +11.5 +2.3 53 +11 +11 1025.9 1004.6
14 20.06 Ю 2 н/о н/о +9.6 +1.8 58 +8 +8 1025.6 1004.3 +20.9
15 20.06 ЮВ 3 н/о н/о +10.5 +3.1 60 +9 +9 1025.5 1004.2
17 20.06 Ю 3 н/о н/о +8.6 +1.7 62 +7 +7 1024.9 1003.6
16 20.06 ЮВ 2 н/о н/о +8.9 +2.5 64 +8 +8 1025.2 1003.9
18 20.06 Ю 2 н/о н/о +8.9 +0.4 55 +8 +8 1025.0 1003.7
19 20.06 ЮВ 2 н/о н/о +8.4 +0.1 56 +7 +7 1024.7 1003.4
20 20.06 ЮВ 3 н/о н/о +9.3 +0.5 54 +7 +7 1025.4 1004.1
21 20.06 ЮВ 3 н/о н/о +8.1 +0.3 58 +6 +6 1026.0 1004.7
23 20.06 ЮЗ 3 н/о н/о +11.1 +1.9 53 +10 +10 1027.5 1006.1
22 20.06 Ю 2 н/о н/о +8.0 +0.7 60 +6 +6 1026.6 1005.2
00 21.06 Ю 2 н/о н/о +15.0 +4.1 48 +15 +15 1028.4 1007.0
01 21.06 ЮВ 4 н/о н/о +17.4 +4.7 43 +17 +17 1027.5 1006.1
02 21.06 В 6 н/о н/о +19.0 +4.7 39 +19 +19 1026.5 1005.1 +6.7
03 21.06 В 5 н/о н/о +19.2 +4.6 38 +19 +19 1025.5 1004.2
05 21.06 Ю 4 н/о н/о +20.1 +3.8 34 +21 +21 комфорт 1024.9 1003.6
04 21.06 ЮВ 4 н/о н/о +19.8 +3.5 34 +20 +20 1025.0 1003.7
06 21.06 ЮВ 5 н/о н/о +20.0 +2.8 32 +20 +20 1024.2 1002.9
07 21.06 ЮВ 5 н/о н/о +19.3 +3.1 34 +19 +19 1024.6 1003.3
08 21.06 ЮВ 4 н/о н/о +17.1 +3.1 39 +17 +17 1024.9 1003.6
09 21.06 ЮВ 4 н/о н/о +15.2 +3.0 44 +14 +14 1025.6 1004.3
11 21.06 ЮВ 4 н/о н/о +12.7 +3.1 52 +11 +11 1025.9 1004.6
10 21.06 ЮВ 4 н/о н/о +13.5 +2.7 48 +12 +12 1025.7 1004.4
12 21.06 ЮВ 3 н/о н/о +11.8 +3.1 55 +11 +11 1026.0 1004.7
13 21.06 ЮВ 3 н/о н/о +11.1 +2.2 54 +10 +10 1026.0 1004.7
14 21.06 В 4 н/о н/о +10.1 +0.7 52 +8 +8 1025.5 1004.2 +20.8
15 21.06 В 3 н/о н/о +9.3 +0.5 54 +7 +7 1025.3 1004.0
17 21.06 В 4 н/о н/о +8.3 -0.2 55 +5 +5 1024.6 1003.3
16 21.06 В 4 н/о н/о +9.0 -0.1 53 +7 +7 1025.1 1003.8
18 21.06 ЮВ 2 н/о н/о +8.1 -0.1 56 +7 +7 1024.8 1003.5
19 21.06 Ю 3 н/о н/о +6.8 -0.9 58 +5 +5 1024.6 1003.3
20 21.06 Ю 2 н/о н/о +6.4 -0.8 60 +4 +4 1024.5 1003.2
21 21.06 ЮЗ 2 н/о н/о +5.9 -0.8 62 +4 +4 1025.1 1003.8
23 21.06 ЮВ 2 н/о н/о +10.8 +0.8 50 +10 +10 1026.4 1005.0
22 21.06 Ю 2 н/о н/о +6.4 -0.3 62 +4 +4 1025.8 1004.5
00 22.06 В 3 н/о н/о +13.1 +1.5 45 +12 +12 1027.0 1005.6
01 22.06 СВ 2 н/о н/о +16.5 +2.5 39 +17 +17 1026.5 1005.1
02 22.06 СВ 4 н/о н/о +18.2 +2.5 35 +18 +18 1025.2 1003.9 +5.4
03 22.06 СВ 4 н/о н/о +19.5 +3.2 34 +20 +20 1024.2 1002.9
05 22.06 В 3 н/о н/о +20.5 +2.8 31 +21 +21 комфорт 1022.8 1001.5
04 22.06 СВ 3 н/о н/о +20.2 +3.4 33 +21 +21 комфорт 1023.1 1001.8
06 22.06 СВ 2 н/о н/о +20.9 +2.7 30 +22 +22 комфорт 1022.6 1001.3
07 22.06 ЮВ 3 н/о н/о +19.3 +2.6 33 +20 +20 1022.3 1001.0
08 22.06 ЮВ 4 н/о н/о +17.2 +2.8 38 +17 +17 1022.4 1001.1
09 22.06 ЮВ 3 н/о н/о +15.1 +2.6 43 +15 +15 1022.8 1001.5
11 22.06 Ю 2 н/о н/о +12.8 +2.6 50 +13 +13 1023.3 1002.0
10 22.06 Ю 3 н/о н/о +13.4 +2.3 47 +13 +13 1023.3 1002.0
12 22.06 Ю 2 н/о н/о +12.4 +2.8 52 +12 +12 1023.0 1001.7
13 22.06 штиль 0 н/о н/о +11.5 +2.5 54 +11 +11 1022.6 1001.3
14 22.06 штиль 0 н/о н/о +11.9 +2.9 54 +12 +12 1022.1 1000.8 +21.4
15 22.06 Ю 2 н/о н/о +10.2 +2.8 60 +9 +9 1021.8 1000.5
17 22.06 ЮЗ 2 н/о н/о +8.7 +1.8 62 +8 +8 1021.6 1000.3
16 22.06 штиль 0 н/о н/о +9.9 +2.3 59 +10 +10 1021.6 1000.3
18 22.06 ЮЗ 2 н/о н/о +8.8 +2.6 65 +8 +8 1021.2 1000.0
19 22.06 Ю 1 н/о н/о +8.6 +2.0 63 +8 +8 1020.9 999.7
20 22.06 З 2 н/о н/о +7.7 +2.0 67 +6 +6 1020.8 999.6
21 22.06 СВ 1 н/о н/о +8.2 +1.1 61 +8 +8 1021.2 1000.0
23 22.06 штиль 0 н/о н/о +11.3 +2.1 53 +11 +11 1021.8 1000.5
22 22.06 штиль 0 н/о н/о +8.4 +2.4 66 +8 +8 1021.2 1000.0
00 23.06 С 2 н/о н/о +16.2 +1.9 38 +16 +16 1022.3 1001.0
01 23.06 З 4 н/о н/о +19.7 +1.7 30 +20 +20 1022.1 1000.8
02 23.06 З 3 н/о н/о +20.8 +1.1 27 +21 +21 комфорт 1021.3 1000.1 +7.2
03 23.06 З 3 н/о н/о +21.5 +0.1 24 +21 +21 комфорт 1020.4 999.2
05 23.06 З 4 н/о н/о +22.7 -1.4 20 +22 +22 комфорт 1019.2 998.0
04 23.06 З 4 н/о н/о +21.8 -0.8 22 +21 +21 комфорт 1019.4 998.2
06 23.06 ЮЗ 4 н/о н/о +22.5 -1.6 20 +21 +21 комфорт 1019.1 997.9
07 23.06 ЮЗ 4 н/о н/о +22.2 -1.8 20 +21 +21 комфорт 1018.9 997.7
08 23.06 ЮЗ 2 н/о н/о +19.5 -1.6 24 +20 +20 1018.9 997.7
09 23.06 ЮЗ 2 н/о н/о +18.1 -1.2 27 +19 +19 1019.4 998.2
11 23.06 Ю 1 н/о н/о +15.9 -0.3 33 +17 +17 1019.9 998.7
10 23.06 ЮЗ 3 н/о н/о +16.1 -1.5 30 +16 +16 1019.8 998.6
12 23.06 ЮЗ 3 н/о н/о +13.0 -1.3 37 +12 +12 1019.9 998.7
13 23.06 ЮВ 1 н/о н/о +13.7 -0.3 38 +14 +14 1019.7 998.5
14 23.06 штиль 0 н/о н/о +14.9 +0.4 37 +15 +15 1019.5 998.3 +23.3
15 23.06 штиль 0 н/о н/о +14.1 0.0 38 +14 +14 1019.1 997.9
17 23.06 штиль 0 н/о н/о +12.4 +0.2 43 +12 +12 1018.5 997.3
16 23.06 штиль 0 н/о н/о +13.2 -0.1 40 +13 +13 1019.2 998.0
18 23.06 С 2 н/о н/о +12.8 +0.5 43 +13 +13 1018.5 997.3
19 23.06 С 3 н/о н/о +12.6 -0.6 40 +12 +12 1018.2 997.0
20 23.06 СЗ 2 н/о н/о +10.7 -1.4 43 +10 +10 1018.9 997.7
21 23.06 З 2 н/о н/о +9.2 -0.7 50 +8 +8 1019.3 998.1
23 23.06 ЮВ 2 н/о н/о +13.5 -0.2 39 +14 +14 1020.1 998.9
22 23.06 штиль 0 н/о н/о +11.4 -0.1 45 +11 +11 1019.9 998.7
00 24.06 С 4 н/о н/о +17.9 -0.4 29 +18 +18 1020.6 999.4
01 24.06 С 4 н/о н/о +20.1 -1.1 24 +20 +20 1020.1 998.9
02 24.06 СЗ 2 н/о н/о +22.1 -1.2 21 +21 +21 комфорт 1019.7 998.5 +9.2
03 24.06 ЮЗ 1 н/о н/о +23.2 -1.7 19 +22 +22 комфорт 1018.8 997.6
05 24.06 З 1 н/о н/о +23.5 -1.4 19 +22 +22 комфорт 1017.8 996.6
04 24.06 ЮВ 2 н/о н/о +22.9 -1.2 20 +22 +22 комфорт 1018.0 996.8
06 24.06 штиль 0 н/о н/о +23.9 -1.1 19 +23 +23 комфорт 1017.5 996.3
07 24.06 штиль 0 н/о н/о +22.5 -0.9 21 +22 +22 комфорт 1017.6 996.4
08 24.06 штиль 0 н/о н/о +20.0 -1.2 24 +20 +20 1017.8 996.6
09 24.06 штиль 0 н/о н/о +18.6 -1.3 26 +19 +19 1018.1 996.9
11 24.06 СВ 3 н/о н/о +16.1 -1.9 29 +16 +16 1018.5 997.3
10 24.06 В 1 н/о н/о +17.8 -0.9 28 +19 +19 1018.4 997.2
12 24.06 С 5 н/о н/о +16.2 -0.9 31 +15 +15 1018.5 997.3
13 24.06 С 4 н/о н/о +16.3 -1.3 30 +16 +16 1018.5 997.3
14 24.06 С 4 н/о н/о +16.3 -0.8 31 +16 +16 1018.2 997.0 +24.4
15 24.06 С 4 н/о н/о +16.5 -1.1 30 +16 +16 1018.2 997.0
17 24.06 З 3 н/о н/о +11.8 -1.0 41 +11 +11 1018.1 996.9
16 24.06 З 2 н/о н/о +12.6 -2.8 34 +12 +12 1018.0 996.8
18 24.06 З 2 н/о н/о +12.5 -0.7 40 +12 +12 1017.9 996.7
19 24.06 С 3 н/о н/о +13.2 -1.2 37 +13 +13 1017.4 996.2
20 24.06 ЮЗ 2 н/о н/о +9.6 -2.0 44 +9 +9 1017.9 996.7
21 24.06 СВ 2 н/о н/о +9.6 -1.4 46 +8 +8 1018.4 997.2
23 24.06 штиль 0 н/о н/о +14.6 -1.5 33 +15 +15 1019.1 997.9
22 24.06 С 4 н/о н/о +10.5 -1.9 42 +9 +9 1018.8 997.6
00 25.06 ЮЗ 3 н/о н/о +17.3 -0.4 30 +17 +17 1019.9 998.7
01 25.06 ЮЗ 5 н/о н/о +19.9 +0.4 27 +20 +20 1020.0 998.8
02 25.06 ЮЗ 5 н/о н/о +21.3 +1.0 26 +21 +21 комфорт 1019.6 998.4 +8.9
03 25.06 З 6 н/о н/о +22.3 +2.4 27 +22 +22 комфорт 1018.9 997.7
05 25.06 З 7 н/о н/о +22.2 +0.1 23 +22 +22 комфорт 1018.2 997.0
04 25.06 ЮЗ 7 н/о н/о +22.4 +0.9 24 +22 +22 комфорт 1018.2 997.0
06 25.06 ЮЗ 6 н/о н/о +22.1 +0.6 24 +22 +22 комфорт 1018.3 997.1
07 25.06 ЮЗ 6 н/о н/о +20.9 +1.2 27 +21 +21 комфорт 1018.6 997.4
08 25.06 ЮЗ 6 н/о н/о +19.1 +1.1 30 +19 +19 1018.9 997.7
09 25.06 ЮЗ 4 н/о н/о +16.9 +1.8 36 +16 +16 1019.8 998.6
11 25.06 ЮЗ 4 н/о н/о +14.1 +2.0 44 +13 +13 1020.9 999.7
10 25.06 З 4 н/о н/о +15.1 +2.0 41 +14 +14 1020.7 999.5
12 25.06 ЮЗ 4 н/о н/о +14.2 +2.8 46 +13 +13 1021.2 1000.0
13 25.06 Ю 3 н/о н/о +13.1 +3.2 51 +12 +12 1021.3 1000.1
14 25.06 ЮЗ 3 н/о н/о +11.8 +3.3 56 +10 +10 1021.3 1000.1 +23.3
15 25.06 ЮЗ 3 н/о н/о +11.3 +3.3 58 +10 +10 1021.5 1000.2
17 25.06 ЮЗ 3 н/о н/о +9.8 +2.6 61 +8 +8 1021.2 1000.0
16 25.06 Ю 3 н/о н/о +10.2 +2.8 60 +8 +8 1021.1 999.9
18 25.06 ЮЗ 3 н/о н/о +10.0 +2.8 61 +8 +8 1021.1 999.9
19 25.06 Ю 3 н/о н/о +10.0 +3.1 62 +8 +8 1021.8 1000.5
20 25.06 Ю 3 н/о н/о +10.7 +3.5 61 +9 +9 1022.4 1001.1
21 25.06 ЮВ 3 н/о н/о +11.5 +4.0 60 +10 +10 1022.9 1001.6
23 25.06 Ю 5 н/о н/о +12.7 +4.2 56 +11 +11 1024.4 1003.1
22 25.06 Ю 3 н/о н/о +11.7 +4.0 59 +10 +10 1023.5 1002.2
00 26.06 ЮВ 5 н/о н/о +14.2 +4.8 53 +13 +13 1025.2 1003.9
01 26.06 ЮВ 6 н/о н/о +15.1 +4.8 50 +14 +14 1025.3 1004.0
02 26.06 В 5 н/о н/о +17.4 +4.7 43 +17 +17 1024.5 1003.2 +9.7
03 26.06 ЮВ 5 н/о н/о +18.0 +3.9 39 +18 +18 1023.8 1002.5
05 26.06 ЮВ 4 н/о н/о +19.0 +3.6 36 +19 +19 1022.4 1001.1
04 26.06 ЮВ 6 н/о н/о +19.3 +3.9 36 +19 +19 1022.7 1001.4
06 26.06 Ю 5 н/о н/о +19.0 +3.2 35 +19 +19 1022.1 1000.8
07 26.06 ЮВ 5 н/о н/о +18.3 +3.4 37 +18 +18 1022.2 1000.9
08 26.06 Ю 4 н/о н/о +16.6 +3.3 41 +16 +16 1022.9 1001.6
09 26.06 Ю 3 н/о н/о +14.7 +2.9 45 +14 +14 1023.8 1002.5
11 26.06 Ю 4 н/о н/о +14.7 +2.9 45 +14 +14 1024.6 1003.3
10 26.06 Ю 3 н/о н/о +14.5 +3.0 46 +14 +14 1024.2 1002.9
12 26.06 Ю 4 н/о н/о +14.7 +2.6 44 +14 +14 1024.6 1003.3
13 26.06 ЮВ 2 н/о н/о +14.3 +2.2 44 +14 +14 1025.3 1004.0
14 26.06 Ю 2 н/о н/о +14.1 +2.4 45 +14 +14 1025.0 1003.7 +19.8
15 26.06 ЮВ 4 н/о н/о +13.9 +2.5 46 +13 +13 1023.7 1002.4
16 26.06 ЮВ 8 н/о н/о +13.2 +4.1 54 +11 +11 1021.9 1000.6

 

Местоположение метеостанции Tibooburra Airport (Новый Южный Уэльс, Австралия): широта -29.45 долгота 142.05 высота над уровнем моря 177 м.

В архиве по умолчанию представлена погода в Tibooburra Airport за последнюю неделю. Архивные данные за месяц целиком и за предыдущие месяцы, начиная с января 2011 года, Вы можете получить, выбрав интересующий диапазон дат из раскрывающегося списка и нажав кнопку "Ввод!".

Внимание! Время в таблицах - всемирное. Для получения местного времени необходимо прибавить поправку, которая в Tibooburra Airport равна 10 ч.

Смотрите также архив погоды в соседних городах и на ближайших метеорологических станциях:

Погода в White Cliffs Aws (Новый Южный Уэльс, Австралия) (184 км)
Погода в Fowlers Gap Aws (Новый Южный Уэльс, Австралия) (184 км)
Погода в Ballera Gas Field (Квинсленд, Австралия) (227 км)
Погода в Moomba Airport (Южная Австралия, Австралия) (235 км)
Погода в Thargomindah Airport (Квинсленд, Австралия) (237 км)
Погода в Wilcannia Aerodrome (Новый Южный Уэльс, Австралия) (263 км)
Погода в Broken Hill Airport (Новый Южный Уэльс, Австралия) (289 км)
Погода в Leigh Creek Airport (Южная Австралия, Австралия) (372 км)
Погода в Bourke Airport Aws (Новый Южный Уэльс, Австралия) (382 км)
Погода в Marree Aero (Южная Австралия, Австралия) (387 км)

Пояснения к столбцам:

Ветер - указаны скорость ветра в м/с - средняя за 10 мин, порывы в срок и между сроками (в фигурных скобках) и направление, откуда дует ветер: С - северный, СВ - северо-восточный, В - восточный, ЮВ - юго-восточный, Ю - южный, ЮЗ - юго-западный, З - западный, СЗ - северо-западный.
Видимость - горизонтальная дальность видимости в метрах или километрах. При видимости от 1 до 10 км при отсутствии осадков обычно наблюдается дымка, при ухудшении видимости до 1 км и менее - туман. В сухую погоду видимость может ухудшаться дымом, пылью или мглою.
Явления - указаны атмосферные явления, наблюдавшиеся в срок или в последний час перед сроком; фигурными скобками обозначены явления, наблюдавшиеся между сроками (за 1-3 часа до срока); квадратными скобками обозначены град или гололедные отложения с указанием их диаметра в мм.
Облачность - указаны через наклонную черту общая и нижняя облачность в баллах и высота нижней границы облаков в метрах; квадратными скобками обозначены формы облаков: Ci - перистые, Cs - перисто-слоистые, Cc - перисто-кучевые, Ac - высококучевые, As - высокослоистые, Sc - слоисто-кучевые, Ns - слоисто-дождевые, Cu - кучевые, Cb - кучево-дождевые. Подробнее классификацию облаков см. в Атласе облаков (PDF).
T - Температура воздуха - температура, измеренная на высоте 2 м над землей.
Td - Температура точки росы - температура, при понижении до которой содержащийся в воздухе водяной пар достигнет насыщения.
f - Относительная влажность воздуха - влажноcть воздуха, измеренная на высоте 2 м над землей.
Te - Эффективная температура - температура, которую ощущает одетый по сезону человек в тени. Характеристика душности погоды. При расчете учитывается влияние влажности воздуха и скорости ветра на теплоощущения человека.
Tes - Эффективная температура на солнце - температура, которую ощущает человек, с поправкой на солнечный нагрев. Характеристика знойности погоды. Зависит от высоты солнца над горизонтом, облачности и скорости ветра. Ночью, в пасмурную погоду, а также при ветре 12 м/с и более поправка равна нулю.
P - Атмосферное давление - приведенное к уровню моря атмосферное давление.
Po - Атмосферное давление - измеренное на уровне метеостанции атмосферное давление.
Tmin - Минимальная температура - минимум температуры воздуха на высоте 2 м над землей.
Tmax - Максимальная температура - максимум температуры воздуха на высоте 2 м над землей.
R - Количество осадков - Количество выпавших осадков за период времени, мм. При наведении курсора мыши на число - период времени, за который выпало указанное количество осадков.
R24 - Количество осадков - Количество выпавших осадков за 24 часа, мм.
S - Снежный покров - Высота снежного покрова, см. При наведении курсора мыши на число - состояние снежного покрова и степень покрытия местности в баллах.